Find Starlink 36984

NORAD ID: 68168 Int'l Des: 2026-050 Owner: SPXS Country: US Constellation: starlink operational
LEOCIRCULAR

当前视图

正在加载3D地球...

About Starlink 36984

Starlink 36984 (NORAD 68168) is a starlink constellation satellite (v2 mini) launched Mar 14, 2026 by SPXS of US. It operates in LEO, CIRCULAR orbit with a mass of 575.00 kg.

关于 Starlink 36984

正在加载描述...

即将过境

Passes for default location (London). Set your location on the main map for personalized predictions.

高度历史

Loading altitude history...

两行轨道根数

1 68168U 26050B 26165.75276994 .00016630 00000-0 50195-3 0 9990
2 68168 53.1574 174.5251 0000808 32.1769 327.9283 15.34417429 15566
Epoch: Jun 14, 2026 • Age: 18 hours

当前状态

高度 466.3 km
速度 7.64 km/s
星下点 40.33°N, 129.09°W
发射日期 Mar 14, 2026
运行时间 0.2 years
类型 internet

技术详情

分类 Payload
质量 575.00 kg
干质量 530.00 kg
总质量 575.00 kg
长度 0.30 m
直径 4.10 m
跨度 29.00 m
形状 Box + pan
制造商 SPXS
平台类型 Starlink V2MO
阶段状态 In Orbit
所有者/国家 SPXS/US

Most Searched